Weather History for KCCU - April, 2013

Change the Weather History Date:

Tuesday, April 9, 2013

  Actual Average (KLXV) Record (KLXV)
Temperature  
Mean Temperature 22 °F -  
Max Temperature 32 °F 42 °F 57 °F (2002)
Min Temperature 12 °F 17 °F 4 °F (1980)
Degree Days  
Heating Degree Days 43 36  
Month to date heating degree days 331  
Since 1 July heating degree days 9314  
Cooling Degree Days 0 0  
Month to date cooling degree days 0  
Year to date cooling degree days 0  
Moisture  
Dew Point 14 °F    
Average Humidity 68    
Maximum Humidity 80    
Minimum Humidity 47    
Precipitation  
Precipitation 0.12 in 0.03 in 0.30 in (2013)
Month to date precipitation 0.30  
Year to date precipitation 2.56  
Sea Level Pressure  
Sea Level Pressure 29.67 in    
Wind  
Wind Speed 13 mph (SSE)    
Max Wind Speed 29 mph    
Max Gust Speed 34 mph    
Visibility 5 miles    
Events Snow    
T = Trace of Precipitation, MM = Missing Value Source: NWS Daily Summary

Daily Weather History Graph

Daily Weather History Graph

Search for Another Location

Airport or City:

Trip Planner

Search our weather history database for the weather conditions in past years. The results will help you decide how hot, cold, wet, or windy it might be!

Date:

Astronomy

Apr. 09, 2013 Rise Set
Actual Time 6:35 AM MDT 7:36 PM MDT
Civil Twilight 6:08 AM MDT 8:04 PM MDT
Nautical Twilight 5:35 AM MDT 8:37 PM MDT
Astronomical Twilight 5:01 AM MDT 9:11 PM MDT
Moon 5:59 AM MDT (4/9) 7:15 PM MDT (4/9)
Length of Visible Light 13h 55m
Length of Day
13h 00m
Waning Crescent, 0% of the Moon is Illuminated
Apr 9
Waning Crescent
Apr 10
New
Apr 18
First Quarter
Apr 25
Full
May 2
Last Quarter

Hourly Weather History & Observations

Time (MDT) Temp. Windchill Dew Point Humidity Pressure Visibility Wind Dir Wind Speed Gust Speed Precip Events Conditions
12:12 AM 32.0 °F 21.2 °F 23.0 °F 69% 29.63 in 10.0 mi ESE 16.1 mph 24.2 mph N/A   Overcast
12:32 AM 32.0 °F 22.1 °F 23.0 °F 69% 29.63 in 10.0 mi ESE 13.8 mph 20.7 mph N/A   Overcast
12:52 AM 32.0 °F 25.6 °F 24.8 °F 75% 29.65 in 4.0 mi SE 6.9 mph - N/A Snow Light Snow
1:12 AM 30.2 °F 22.6 °F 23.0 °F 75% 29.66 in 2.5 mi South 8.1 mph - N/A Snow Light Snow
1:32 AM 30.2 °F 18.9 °F 23.0 °F 75% 29.68 in 0.8 mi SSE 16.1 mph - N/A Snow Snow
1:52 AM 28.4 °F 14.4 °F 23.0 °F 80% 29.68 in 0.2 mi South 23.0 mph - N/A Snow Snow
2:12 AM 28.4 °F - 21.2 °F 74% 29.67 in 1.5 mi North - - N/A Snow Light Snow
2:32 AM 28.4 °F 16.6 °F 21.2 °F 74% 29.67 in 0.8 mi SSE 16.1 mph 25.3 mph N/A Snow Snow
2:52 AM 28.4 °F 21.2 °F 21.2 °F 74% 29.65 in 3.0 mi SE 6.9 mph 18.4 mph N/A Snow Light Snow
3:12 AM 28.4 °F 18.5 °F 21.2 °F 74% 29.63 in 10.0 mi SE 11.5 mph - N/A   Overcast
3:32 AM 28.4 °F 21.2 °F 19.4 °F 69% 29.63 in 10.0 mi South 6.9 mph - N/A   Mostly Cloudy
3:52 AM 28.4 °F 23.3 °F 21.2 °F 74% 29.63 in 10.0 mi SE 4.6 mph 16.1 mph N/A   Mostly Cloudy
4:12 AM 28.4 °F 18.0 °F 19.4 °F 69% 29.62 in 7.0 mi SSE 12.7 mph - N/A   Overcast
4:32 AM 28.4 °F 18.5 °F 19.4 °F 69% 29.61 in 2.5 mi South 11.5 mph - N/A Snow Light Snow
4:52 AM 26.6 °F 17.5 °F 19.4 °F 74% 29.61 in 1.2 mi West 9.2 mph - N/A   Haze
5:12 AM 24.8 °F 11.9 °F 19.4 °F 80% 29.60 in 0.5 mi West 16.1 mph 19.6 mph N/A Snow Light Snow
5:32 AM 24.8 °F 19.1 °F 19.4 °F 80% 29.60 in 0.5 mi WNW 4.6 mph - N/A Snow Light Snow
6:12 AM 26.6 °F 19.1 °F 19.4 °F 74% 29.62 in 0.5 mi South 6.9 mph - N/A Snow Snow
6:21 AM 26.6 °F 22.6 °F 21.2 °F 80% 29.62 in 0.8 mi West 3.5 mph - N/A Snow Light Snow
7:52 AM 23.0 °F 10.6 °F 17.6 °F 80% 29.60 in 0.5 mi East 13.8 mph 21.9 mph N/A Snow Snow
8:12 AM 23.0 °F 14.7 °F 17.6 °F 80% 29.62 in 1.0 mi East 6.9 mph 18.4 mph N/A Snow Light Snow
8:32 AM 23.0 °F 13.9 °F 17.6 °F 80% 29.63 in 0.5 mi South 8.1 mph - N/A Snow Snow
8:52 AM 23.0 °F 10.1 °F 17.6 °F 80% 29.63 in 0.5 mi ENE 15.0 mph 25.3 mph N/A Snow Light Snow
9:12 AM 23.0 °F 14.7 °F 17.6 °F 80% 29.63 in 1.5 mi SE 6.9 mph 20.7 mph N/A Snow Light Snow
9:32 AM 24.8 °F 15.3 °F 17.6 °F 74% 29.63 in 1.2 mi ESE 9.2 mph 18.4 mph N/A Snow Light Snow
9:52 AM 26.6 °F 17.5 °F 14.0 °F 59% 29.63 in 1.5 mi East 9.2 mph 21.9 mph 0.01 in Snow Light Snow
10:12 AM 28.4 °F 22.2 °F 15.8 °F 59% 29.63 in 7.0 mi NE 5.8 mph 19.6 mph 0.07 in Snow Light Snow
10:32 AM 32.0 °F 21.2 °F 19.4 °F 60% 29.63 in 2.5 mi East 16.1 mph 31.1 mph 0.11 in   Haze
10:52 AM 28.4 °F 19.1 °F 17.6 °F 64% 29.64 in 2.0 mi SE 10.4 mph 19.6 mph 0.11 in   Haze
11:12 AM 30.2 °F 21.3 °F 17.6 °F 60% 29.63 in 1.2 mi ESE 10.4 mph 27.6 mph N/A Snow Light Snow
11:32 AM 32.0 °F 22.5 °F 17.6 °F 55% 29.63 in 2.5 mi ESE 12.7 mph 27.6 mph N/A   Haze
11:52 AM 26.6 °F 18.2 °F 17.6 °F 69% 29.64 in 1.0 mi ESE 8.1 mph 29.9 mph N/A Snow Light Snow
12:12 PM 28.4 °F 16.6 °F 14.0 °F 55% 29.63 in 4.0 mi East 16.1 mph 28.8 mph N/A Snow Light Snow
12:32 PM 28.4 °F 18.5 °F 14.0 °F 55% 29.64 in 10.0 mi SSE 11.5 mph 19.6 mph N/A Snow Light Snow
12:52 PM 26.6 °F 15.7 °F 14.0 °F 59% 29.63 in 10.0 mi East 12.7 mph 18.4 mph N/A   Overcast
1:12 PM 24.8 °F 16.1 °F 14.0 °F 64% 29.65 in 10.0 mi NNE 8.1 mph - N/A   Overcast
1:32 PM 24.8 °F 14.6 °F 12.2 °F 59% 29.65 in 7.0 mi SSE 10.4 mph 16.1 mph N/A Snow Light Snow
1:52 PM 24.8 °F 8.1 °F 10.4 °F 54% 29.60 in 7.0 mi East 28.8 mph 34.5 mph N/A   Overcast
2:12 PM 24.8 °F 10.7 °F 10.4 °F 54% 29.61 in 10.0 mi ESE 19.6 mph - N/A   Mostly Cloudy
2:32 PM 26.6 °F 14.3 °F 10.4 °F 51% 29.63 in 10.0 mi East 16.1 mph 24.2 mph N/A   Mostly Cloudy
2:52 PM 30.2 °F 24.3 °F 12.2 °F 47% 29.64 in 10.0 mi SE 5.8 mph - N/A   Mostly Cloudy
3:12 PM 26.6 °F 14.7 °F 10.4 °F 51% 29.64 in 10.0 mi South 15.0 mph - N/A   Scattered Clouds
3:32 PM 24.8 °F 12.4 °F 10.4 °F 54% 29.64 in 10.0 mi SSE 15.0 mph 26.5 mph N/A   Mostly Cloudy
3:52 PM 24.8 °F 10.0 °F 10.4 °F 54% 29.65 in 10.0 mi SSE 21.9 mph 27.6 mph N/A   Overcast
4:12 PM 23.0 °F 8.0 °F 8.6 °F 54% 29.65 in 10.0 mi SSE 20.7 mph - N/A   Overcast
4:32 PM 23.0 °F 9.2 °F 8.6 °F 54% 29.65 in 10.0 mi SSE 17.3 mph 27.6 mph N/A   Mostly Cloudy
4:52 PM 23.0 °F 6.6 °F 8.6 °F 54% 29.64 in 10.0 mi SSE 25.3 mph 29.9 mph N/A   Scattered Clouds
5:12 PM 19.4 °F 2.5 °F 8.6 °F 63% 29.66 in 10.0 mi SSE 23.0 mph 28.8 mph N/A   Mostly Cloudy
5:32 PM 19.4 °F - 8.6 °F 63% 29.68 in 10.0 mi North - - N/A   Overcast
5:52 PM 19.4 °F - 8.6 °F 63% 29.69 in 10.0 mi North - - N/A   Overcast
6:12 PM 19.4 °F - 10.4 °F 68% 29.71 in 10.0 mi North - - N/A   Overcast
6:32 PM 19.4 °F 5.5 °F 10.4 °F 68% 29.71 in 10.0 mi South 15.0 mph - N/A   Overcast
6:52 PM 17.6 °F 2.2 °F 10.4 °F 73% 29.72 in 1.5 mi South 17.3 mph - N/A Snow Light Snow
7:12 PM 17.6 °F 2.7 °F 10.4 °F 73% 29.72 in 1.8 mi South 16.1 mph 23.0 mph N/A Snow Light Snow
7:32 PM 15.8 °F -0.6 °F 8.6 °F 73% 29.73 in 1.0 mi South 18.4 mph - N/A Snow Light Snow
7:52 PM 14.0 °F -2.5 °F 8.6 °F 79% 29.74 in 1.2 mi South 17.3 mph - N/A Snow Light Snow
8:12 PM 14.0 °F -3.0 °F 8.6 °F 79% 29.74 in 1.8 mi South 18.4 mph 25.3 mph N/A Snow Light Snow
8:52 PM 14.0 °F -0.8 °F 6.8 °F 73% 29.76 in 5.0 mi SSW 13.8 mph 18.4 mph N/A   Haze
9:12 PM 14.0 °F 0.5 °F 8.6 °F 79% 29.77 in 7.0 mi South 11.5 mph - N/A   Overcast
9:32 PM 14.0 °F -1.4 °F 6.8 °F 73% 29.79 in 10.0 mi SSW 15.0 mph 18.4 mph N/A   Overcast
9:52 PM 14.0 °F 1.2 °F 6.8 °F 73% 29.79 in 10.0 mi SSW 10.4 mph 20.7 mph N/A   Overcast
10:12 PM 14.0 °F -3.4 °F 8.6 °F 79% 29.79 in 10.0 mi South 19.6 mph 24.2 mph N/A   Scattered Clouds
10:32 PM 14.0 °F - 6.8 °F 73% 29.79 in 10.0 mi North - - N/A   Clear
10:52 PM 12.2 °F - 5.0 °F 73% 29.80 in 4.0 mi North - - N/A Snow Light Snow
11:12 PM 12.2 °F - 5.0 °F 73% 29.80 in 1.2 mi North - - N/A Snow Light Snow
11:32 PM 12.2 °F 1.7 °F 5.0 °F 73% 29.79 in 1.2 mi South 6.9 mph - N/A Snow Light Snow
11:52 PM 14.0 °F - 8.6 °F 79% 29.79 in 10.0 mi North - - N/A   Overcast